Regional Weather Roundup
Issued by NWS

Home | Current Version | Previous Version | Graphics & Text | Print | Product List | Glossary On
Versions: 1 2 3 4 5 6 7 8 9 10 11 12 13 14 15 16 17 18 19 20 21 22 23 24 25 26 27 28 29 30 31 32 33 34 35 36 37 38 39 40 41 42 43 44 45 46 47 48 49 50
000
ASUS43 KMPX 241301
RWRMN
WEATHER ROUNDUP FOR MINNESOTA
NATIONAL WEATHER SERVICE TWIN CITIES/CHANHASSEN MN
800 AM CDT WED AUG 24 2016


NOTE: "FAIR" INDICATES FEW OR NO CLOUDS BELOW 12,000 FEET WITH NO
SIGNIFICANT WEATHER AND/OR OBSTRUCTIONS TO VISIBILITY. N/A MEANS
CURRENT SKY AND/OR WEATHER CONDITIONS ARE NOT AVAILABLE.

MNZ060>063-068>070-241400-
   Twin Cities Metro

CITY           SKY/WX    TMP DP  RH WIND       PRES   REMARKS
TWIN CITIES    MOSUNNY   68  66  93 W3        29.84R
ST PAUL        CLOUDY    68  67  96 CALM      29.84S
CRYSTAL        CLOUDY    68  64  87 W3        29.83R
BLAINE         MOSUNNY   70  70 100 CALM      29.84R FOG
LAKEVILLE      CLOUDY    66  66 100 W5        29.85R FOG
EDEN PRAIRIE   CLOUDY    69  66  90 CALM      29.84R
LAKEVILLE      CLOUDY    66  66 100 W5        29.85R FOG
SOUTH ST PAUL  PTSUNNY   69  68  97 CALM      29.84S
LAKE ELMO      CLOUDY    68  68 100 NW3       29.85S
$$
MNZ001>005-007-008-013>017-022>024-027-028-241400-
   Northwest Minnesota

CITY           SKY/WX    TMP DP  RH WIND       PRES   REMARKS
BEMIDJI        SUNNY     62  55  77 W9        29.83R
HALLOCK        SUNNY     55  54  94 SW3       29.79R
ROSEAU         MOSUNNY   61  55  82 SW5       29.79S
WARROAD        CLOUDY    63  57  82 W10       29.79R
THIEF RVR FALL SUNNY     59  52  77 W10       29.83R
CROOKSTON      SUNNY     59  52  77 W9        29.84S
FOSSTON        SUNNY     57  55  94 SW5       29.85S
DETROIT LAKES  SUNNY     63  52  67 W9        29.89S
MOORHEAD       SUNNY     57  52  82 W5        29.89S
PARK RAPIDS    SUNNY     64  57  78 W7        29.86R
MAHNOMEN       FAIR      59  53  80 W7        29.86S
$$
MNZ006-009>011-018-025>026-241400-
   North Central Minnesota

CITY           SKY/WX    TMP DP  RH WIND       PRES   REMARKS
BAUDETTE       PTSUNNY   66  63  90 W5        29.76S
FLAG ISLAND    CLOUDY    66  63  88 W3        29.73S HAZE
INTL FALLS     CLOUDY    70  66  87 VRB6      29.75S
WASKISH        MOSUNNY   66  63  88 W13G20    29.79R
BIG FORK       CLOUDY    68  64  88 S6        29.79F
LONGVILLE      SUNNY     66  64  94 W5        29.82R
GRAND RAPIDS   MOSUNNY   67  65  93 S3        29.82F
CRANE LAKE     CLOUDY    64  63  94 S5        29.79F
ORR            PTSUNNY   64  61  88 CALM      29.76F
COOK           CLOUDY    64  63  94 S5        29.79F
WALKER         FAIR      63  59  87 W8        29.83R
$$
MNZ012-019>021-037-241400-
   Northeast Minnesota

CITY           SKY/WX    TMP DP  RH WIND       PRES   REMARKS
DULUTH         CLOUDY    66  65  96 W3        29.82S
ELY            MOSUNNY   64  63  94 S3        29.80F
HIBBING        CLOUDY    61  61 100 W3        29.80S FOG
EVELETH          N/A     63  62  98 CALM      29.82S FOG
DULUTH HARBOR  CLOUDY    70  64  83 SW3       29.80S
TWO HARBORS    PTSUNNY   66  61  82 CALM      29.80S
SILVER BAY     CLOUDY    61  61 100 CALM      29.80S
GRAND MARAIS     N/A     66  64  93 CALM      29.80S
G MARAIS ARPRT CLOUDY    61  57  88 CALM      29.85S FOG
$$
MNZ029>031-032-039>041-046>048-054>057-064-241400-
   West Central Minnesota

CITY           SKY/WX    TMP DP  RH WIND       PRES   REMARKS
FERGUS FALLS   SUNNY     57  55  94 NW3       29.92R
WHEATON        SUNNY     63  55  77 W8        29.93R
MORRIS         SUNNY     61  55  82 NW8       29.90R
ALEXANDRIA     SUNNY     66  62  87 W9        29.90R
ELBOW LAKE     FAIR      57  55  91 NW6       29.90S
WADENA         SUNNY     63  57  82 W6        29.86S
GLENWOOD       SUNNY     66  64  94 W7        29.89R
APPLETON       SUNNY     63  55  77 NW8       29.90S
BENSON         SUNNY     63  54  72 N9        29.90R
ORTONVILLE     SUNNY     63  50  63 NW9       29.92S
MADISON        SUNNY     61  52  72 NW8       29.92R
WILLMAR        PTSUNNY   66  66 100 NW12      29.90R
$$
MNZ033>034-036-042>043-049>051-058-059-241400-
   Central Minnesota

CITY           SKY/WX    TMP DP  RH WIND       PRES   REMARKS
ST CLOUD       CLOUDY    67  67 100 W3        29.85R
SAUK CENTRE    PTSUNNY   66  64  91 W8        29.88R
PAYNESVILLE    CLOUDY    68  68 100 W6        29.88R
AITKIN         PTSUNNY   70  63  78 SW6       29.81S
PINE RIVER     PTSUNNY   66  66 100 CALM      29.87R
BRAINERD       PTSUNNY   68  66  93 W6        29.83R
STAPLES        SUNNY     63  59  88 W7        29.85R
LONG PRAIRIE   PTSUNNY   66  59  77 W8        29.87R
LITTLE FALLS   MOSUNNY   64  63  94 CALM      29.85R FOG
LITCHFIELD     CLOUDY    70  68  94 NW7       29.87R FOG
BUFFALO        CLOUDY    67  65  93 CALM      29.86R
MAPLE LAKE     CLOUDY    69  68  97 W5        29.86R FOG
HUTCHINSON     CLOUDY    69  68  99 W6        29.88R FOG
$$
MNZ037-044-045-052-053-241400-
   East Central Minnesota

CITY           SKY/WX    TMP DP  RH WIND       PRES   REMARKS
PRINCETON      PTSUNNY   68  66  94 SW3       29.85R
MORA           CLOUDY    64  63  94 W3        29.85S
CAMBRIDGE      CLOUDY    70  64  83 CALM      29.82S
RUSH CITY      RAIN      66  65  94 W3        29.84R
MOOSE LAKE     CLOUDY    64  64 100 CALM      29.81R
HINCKLEY       CLOUDY    66  66 100 SW3       29.83R
CLOQUET        CLOUDY    66  64  94 CALM      29.82S
MCGREGOR       CLOUDY    66  64  94 W3        29.82S
$$
MNZ071>073-080-081-089-090-097-098-241400-
   Southwest Minnesota

CITY           SKY/WX    TMP DP  RH WIND       PRES   REMARKS
MONTEVIDEO     SUNNY     64  61  88 NW7       29.92R
GRANITE FALLS  SUNNY     63  58  84 W7        29.92R
CANBY          SUNNY     63  53  69 NW8       29.94R
MARSHALL       SUNNY     62  54  74 W8        29.93R
REDWOOD FALLS  SUNNY     65  62  90 NW10      29.89R
OLIVIA         MOSUNNY   68  64  88 NW8       29.89R
PIPESTONE      SUNNY     63  55  77 N7        29.96R
WINDOM         SUNNY     64  59  82 NW12      29.91R
WORTHINGTON    SUNNY     64  58  80 NW12      29.95R
JACKSON        SUNNY     64  57  77 NW9G16    29.92R
TRACY          SUNNY     64  56  77 NW8       29.92R
SLAYTON        SUNNY     61  55  82 NW10      29.94R
$$
MNZ065>067-074>077-082>085-091>093-241400-
   South Central Minnesota

CITY           SKY/WX    TMP DP  RH WIND       PRES   REMARKS
MANKATO        CLOUDY    70  66  88 W7        29.87R
NEW ULM          N/A     68  68 100 W7        29.88R FOG
ST JAMES       CLOUDY    63  61  94 W9        29.90R
FAIRMONT         N/A    N/A N/A N/A MISG        N/A
GLENCOE        CLOUDY    68  68 100 SW3       29.86R FOG
FARIBAULT      CLOUDY    70  70 100 W5        29.86R
OWATONNA       CLOUDY    72  70  94 W5        29.86R FOG
WASECA         CLOUDY    72  70  94 CALM      29.88R FOG
ALBERT LEA     CLOUDY    72  68  88 W5        29.87R
$$
MNZ078>079-086>088-094>096-241400-
   Southeast Minnesota

CITY           SKY/WX    TMP DP  RH WIND       PRES   REMARKS
ROCHESTER      CLOUDY    73  72  96 SW9       29.87R
RED WING       CLOUDY    70  68  94 CALM      29.83R
STANTON        CLOUDY    70  68  94 CALM      29.83S
DODGE CENTER   CLOUDY    72  70  94 W6        29.87R FOG
WINONA         CLOUDY    70  64  83 CALM      29.86R
AUSTIN         MOSUNNY   72  70  94 SW6       29.87R FOG
PRESTON        CLOUDY    70  68  93 S8        29.88S
$$
ABBREVIATIONS USED IN REMARKS
   TC - TEMPERATURES IN CELSIUS
  WCI - WIND CHILL INDEX
   HX - HEAT INDEX
  VSB - VISIBILITY
$$




USA.gov is the U.S. government's official web portal to all federal, state and local government web resources and services.